Regional Weather Roundup
Issued by NWS Cleveland, OH

Home | Current Version | Previous Version | Text Only | Print | Product List | Glossary Off
Versions: 1 2 3 4 5 6 7 8 9 10 11 12 13 14 15 16 17 18 19 20 21 22 23 24 25 26 27 28 29 30 31 32 33 34 35 36 37 38 39 40 41 42 43 44 45 46 47 48 49 50

000
ASUS41 KCLE 300500
RWRCLE
OHIO REGIONAL WEATHER ROUNDUP
NATIONAL WEATHER SERVICE WILMINGTON, OH
100 AM EDT WED JUL 30 2014

NOTE: "FAIR" INDICATES FEW OR NO CLOUDS BELOW 12,000 FEET WITH NO
SIGNIFICANT WEATHER AND/OR OBSTRUCTIONS TO VISIBILITY.

OHZ001>008-015>018-024>027-034-035-043-044-300600-
   NORTHWEST OHIO

CITY           SKY/WX    TMP DP  RH WIND       PRES   REMARKS
DEFIANCE       CLEAR     57  55  93 CALM      30.00F FOG
FINDLAY        CLEAR     60  57  89 SW6       30.00S
TOLEDO EXPRESS CLEAR     60  57  89 SW6       29.98S
TOLEDO METCALF CLEAR     61  55  81 SW6       29.99S
LIMA           CLEAR     62  58  86 SW7       30.02R
$$

OHZ009>014-019>023-028>033-038-089-300600-
   NORTHEAST OHIO

CITY           SKY/WX    TMP DP  RH WIND       PRES   REMARKS
CLE-HOPKINS    LGT RAIN  62  53  72 SW6       30.02R
CLE-LAKEFRONT  LGT RAIN  64  55  72 S9        29.98S
CUY CO. ARPT   NOT AVBL
LORAIN-ELYRIA  MOCLDY    64  54  69 SW7       30.01R
ASHTABULA      LGT RAIN  59  54  83 S6        30.00S
AKRON-CANTON   PTCLDY    60  51  72 SW6       30.03S
WOOSTER        NOT AVBL
MANSFIELD      CLEAR     58  54  86 SW6       30.03R
YOUNGSTOWN     CLOUDY    59  52  77 SW6       30.02S
$$

OHZ042-051>053-060>062-070>072-077>081-300600-
  SOUTHWEST OHIO

CITY           SKY/WX    TMP DP  RH WIND       PRES   REMARKS
CINC-COVINGTON PTCLDY    62  56  80 SW5       30.06S
CINC-LUNKEN    CLEAR     58  57  97 CALM      30.06S
HAMILTON       CLEAR     57  57 100 CALM      30.06S
DAYTON         NOT AVBL
WRIGHT-PAT AFB PTCLDY    63  57  81 S5        30.04S
DAYTON GENERAL PTCLDY    61  56  83 SW3       30.04S
WILMINGTON     CLEAR     58  53  84 SW3       30.05S
$$

OHZ036-037-039>041-045>050-054>059-063>069-073>076-082>088-300600-
  CENTRAL AND SOUTHEAST OHIO

CITY           SKY/WX    TMP DP  RH WIND       PRES   REMARKS
COLUMBUS       MOCLDY    64  53  67 SE5       30.03S
OSU AIRPORT    CLEAR     61  54  77 S7        30.03S
BOLTON FIELD   NOT AVBL
RICKENBACK AFB NOT AVBL
NEWARK         CLEAR     55  52  89 CALM      30.03F
MARION         MOCLDY    60  56  86 S3        30.02S
LANCASTER      CLEAR     54  51  90 CALM      30.05S
ZANESVILLE     CLOUDY    56  53  90 CALM      30.04F
NEW PHILLY     CLEAR     56  54  93 SE3       30.05S
$$


USA.gov is the U.S. government's official web portal to all federal, state and local government web resources and services.